[[{"header":{"parameterUnit":"m.s-1","parameterCategory":2,"la1":30.2991,"la2":30.254,"lo1":-89.0895,"lo2":-89.0444,"dy":0.0017,"dx":0.0017,"nx":28,"ny":28,"refTime":"2025-08-03T03:00:00:Z","depth":"0","parameterNumber":2,"parameterNumberName":"U-component_of_CURRENTS"},"data":[0,0,0,0,0,0,0,0,0,0,0,0,0,0,0,0,0,0,0,0,0,0,0,0,0,0,0,0,0,0,0,0,0,0,0,0,0,0,0,0,0,0,0,0,0,0,0,0,0,0,0,0,0,0,0,0,0,0,-0.141,-0.1409,0,-0.129,-0.1288,-0.1287,-0.1241,-0.1241,-0.1241,-0.1242,-0.1109,-0.1106,-0.1102,0,0,0,0,0,0,0,0,0,0,0,0,0,-0.1583,-0.158,-0.141,-0.1409,-0.1407,-0.129,-0.1288,-0.1287,-0.124,-0.1241,-0.1241,-0.1242,-0.1111,-0.1106,-0.1102,0,0,0,0,0,0,0,0,0,0,0,0,0,-0.1489,-0.1579,-0.141,-0.137,-0.1366,-0.129,-0.1288,-0.1286,-0.124,-0.1241,-0.1242,-0.1242,-0.1112,-0.1107,-0.1101,-0.1054,0,0,-0.1083,-0.1081,0,0,0,0,0,0,0,0,-0.1495,-0.1483,-0.1378,-0.1373,-0.1368,-0.1281,-0.1301,-0.1208,-0.124,-0.1287,-0.1242,-0.1242,-0.1166,-0.1156,-0.1131,-0.1047,-0.1042,-0.1083,-0.1079,-0.1077,-0.1075,0,0,0,0,0,0,0,-0.1501,-0.1488,-0.1362,-0.1376,-0.137,-0.1353,-0.134,-0.1283,-0.1224,-0.1283,-0.128,-0.1267,-0.1163,-0.1137,-0.1128,-0.104,-0.1083,-0.1078,-0.1074,-0.1072,-0.0943,-0.0943,0,0,0,0,0,0,-0.1517,-0.1494,-0.1366,-0.1358,-0.1434,-0.1349,-0.1335,-0.1308,-0.1225,-0.1213,-0.1267,-0.1265,-0.1146,-0.1134,-0.1123,-0.1081,-0.1077,-0.1071,-0.1068,-0.0943,-0.0943,-0.0943,0,0,0,0,0,0,-0.1521,-0.1506,-0.1371,-0.1425,-0.1407,-0.1346,-0.1315,-0.1305,-0.1279,-0.1212,-0.12,-0.1251,-0.1146,-0.1131,-0.1084,-0.1075,-0.1069,-0.1063,-0.0943,-0.0943,-0.0943,-0.0986,0,0,0,0,0,0,-0.1526,-0.1508,-0.149,-0.1425,-0.1404,-0.1326,-0.1315,-0.1303,-0.127,-0.1267,-0.1195,-0.1183,-0.1146,-0.1093,-0.1078,-0.1067,-0.1059,-0.0943,-0.0943,-0.0943,-0.0985,-0.0988,-0.099,0,0,0,0,0,-0.1532,-0.1495,-0.149,-0.1474,-0.1382,-0.1326,-0.1313,-0.1272,-0.1269,-0.1252,-0.1217,-0.1185,-0.1084,-0.1088,-0.1071,-0.1058,-0.0943,-0.0943,-0.0943,-0.0983,-0.0987,-0.099,0,0,0,0,0,0,-0.1556,-0.1485,-0.1478,-0.142,-0.1383,-0.1318,-0.1287,-0.1273,-0.1229,-0.1225,-0.1178,-0.1163,-0.1124,-0.1084,-0.1091,-0.1024,-0.101,-0.1007,-0.1047,-0.105,-0.1053,-0.1069,-0.1054,0,0,0,0,0,-0.1557,-0.151,-0.1458,-0.1414,-0.1393,-0.1346,-0.1318,-0.1295,-0.125,-0.1231,-0.1186,-0.1142,-0.1109,-0.1076,-0.1037,-0.0986,-0.098,-0.0971,-0.0973,-0.0976,-0.0979,-0.1,-0.1006,-0.0944,-0.0944,-0.0944,0,0,-0.1557,-0.1509,-0.1485,-0.1417,-0.1379,-0.1336,-0.1329,-0.1282,-0.1254,-0.1221,-0.1167,-0.1149,-0.1102,-0.106,-0.1037,-0.1023,-0.0984,-0.0976,-0.0979,-0.098,-0.1001,-0.1007,-0.1013,-0.0944,-0.0944,-0.0944,0,0,-0.1521,-0.149,-0.1438,-0.1407,-0.1352,-0.1324,-0.1316,-0.1258,-0.1242,-0.1195,-0.1181,-0.1178,-0.1083,-0.1078,-0.1057,-0.1051,-0.1009,-0.1016,-0.1027,-0.1048,-0.1054,-0.1059,-0.1038,-0.104,-0.1007,-0.1007,-0.1007,0,-0.1522,-0.145,-0.1419,-0.1367,-0.1336,-0.1321,-0.1275,-0.1253,-0.1194,-0.1188,-0.1182,-0.1126,-0.1104,-0.1082,-0.1085,-0.1061,-0.1039,-0.1018,-0.1054,-0.1059,-0.1063,-0.1041,-0.1043,-0.1009,-0.1009,-0.1008,-0.1008,0,-0.1453,-0.1401,-0.1368,-0.1299,-0.1269,-0.1226,-0.1201,-0.1188,-0.1176,-0.116,-0.1148,-0.1139,-0.1112,-0.1107,-0.1087,-0.1099,-0.106,-0.1067,-0.105,-0.1072,-0.1046,-0.1048,-0.1012,-0.1011,-0.101,-0.101,0,0,-0.1428,-0.1336,-0.1323,-0.1286,-0.1231,-0.1195,-0.1175,-0.1146,-0.114,-0.1125,-0.1118,-0.1113,-0.113,-0.1111,-0.1106,-0.1125,-0.1149,-0.1097,-0.1098,-0.1084,-0.1148,-0.1118,-0.1117,-0.1149,-0.115,-0.1151,-0.1109,0,-0.1378,-0.1276,-0.1248,-0.1169,-0.1117,-0.1118,-0.1096,-0.1085,-0.1087,-0.1082,-0.1118,-0.1103,-0.112,-0.1116,-0.1146,-0.1146,-0.1158,-0.1157,-0.1121,-0.1119,-0.1099,-0.1121,-0.1063,-0.1021,-0.1111,-0.1111,-0.1112,0,-0.131,-0.125,-0.1165,-0.1099,-0.108,-0.1046,-0.1031,-0.101,-0.103,-0.1038,-0.1066,-0.1079,-0.1111,-0.1131,-0.1161,-0.1145,-0.115,-0.1159,-0.1157,-0.1119,-0.1095,-0.1017,-0.1021,-0.0923,-0.1115,-0.1114,-0.1114,0,-0.1286,-0.1188,-0.1121,-0.1096,-0.103,-0.1013,-0.0991,-0.0997,-0.099,-0.1016,-0.1024,-0.106,-0.1076,-0.1108,-0.1129,-0.1136,-0.115,-0.1168,-0.1145,-0.114,-0.1081,-0.1071,-0.0998,-0.1201,-0.1201,-0.1201,-0.1201,0,-0.1225,-0.1164,-0.1105,-0.1066,-0.0997,-0.0978,-0.0942,-0.0938,-0.0956,-0.0946,-0.0998,-0.1004,-0.1072,-0.1087,-0.1113,-0.1122,-0.1139,-0.1149,-0.114,-0.109,-0.1082,-0.0985,-0.1,-0.1199,-0.12,-0.12,-0.12,0,-0.1168,-0.114,-0.1056,-0.0996,-0.0974,-0.0925,-0.089,-0.0874,-0.0904,-0.0902,-0.0909,-0.0956,-0.0968,-0.1014,-0.1052,-0.109,-0.1085,-0.1106,-0.1022,-0.1005,-0.0915,-0.0936,-0.0998,-0.0962,-0.1086,-0.1085,-0.1084,0,-0.1102,-0.1059,-0.0996,-0.0954,-0.0914,-0.0859,-0.0823,-0.0836,-0.0832,-0.0865,-0.0857,-0.0879,-0.0872,-0.091,-0.0975,-0.1004,-0.1014,-0.0983,-0.1022,-0.09,-0.0916,-0.1001,-0.0972,-0.0942,-0.094,-0.0939,-0.0938,0,-0.0965,-0.097,-0.0909,-0.0849,-0.0798,-0.0747,-0.0709,-0.0707,-0.0735,-0.0747,-0.0743,-0.074,-0.0788,-0.0803,-0.0861,-0.0885,-0.0948,-0.0955,-0.0861,-0.0831,-0.089,-0.085,-0.0947,-0.0925,-0.0926,-0.0927,-0.0928,-0.0928,-0.0841,-0.0794,-0.075,-0.069,-0.0661,-0.0622,-0.0567,-0.0571,-0.0553,-0.0549,-0.0611,-0.0587,-0.0661,-0.0735,-0.0732,-0.0725,-0.0855,-0.0726,-0.0767,-0.0866,-0.083,-0.0884,-0.084,-0.084,-0.0841,-0.0842,-0.0842,0,-0.0627,-0.0626,-0.0582,-0.0518,-0.0488,-0.0511,-0.0472,-0.0429,-0.0394,-0.0412,-0.041,-0.0459,-0.046,-0.0505,-0.0583,-0.0551,-0.0578,-0.0514,-0.0584,-0.0565,-0.0603,-0.0588,-0.0448,-0.0448,-0.0448,-0.0448,-0.0449,-0.0449,-0.0497,-0.0419,-0.0438,-0.0353,-0.0345,-0.0279,-0.0255,-0.0216,-0.0213,-0.0185,-0.0209,-0.0241,-0.0322,-0.0455,-0.0402,-0.0379,-0.0363,-0.0412,-0.041,-0.0365,-0.0386,-0.0406,-0.0387,-0.0208,-0.0208,-0.0333,-0.0334,-0.0335]},{"header":{"parameterUnit":"m.s-1","parameterCategory":2,"la1":30.2991,"la2":30.254,"lo1":-89.0895,"lo2":-89.0444,"dy":0.0017,"dx":0.0017,"nx":28,"ny":28,"refTime":"2025-08-03T03:00:00:Z","depth":"0","parameterNumber":3,"parameterNumberName":"V-component_of_CURRENTS"},"data":[0,0,0,0,0,0,0,0,0,0,0,0,0,0,0,0,0,0,0,0,0,0,0,0,0,0,0,0,0,0,0,0,0,0,0,0,0,0,0,0,0,0,0,0,0,0,0,0,0,0,0,0,0,0,0,0,0,0,-0.0225,-0.0224,0,-0.0224,-0.0224,-0.0224,-0.0205,-0.0204,-0.0204,-0.0203,-0.0151,-0.015,-0.0149,0,0,0,0,0,0,0,0,0,0,0,0,0,-0.0335,-0.0332,-0.0225,-0.0224,-0.0224,-0.0224,-0.0224,-0.0224,-0.0205,-0.0204,-0.0203,-0.0203,-0.0151,-0.015,-0.0149,0,0,0,0,0,0,0,0,0,0,0,0,0,-0.0307,-0.0332,-0.0225,-0.0213,-0.0212,-0.0224,-0.0224,-0.0224,-0.0205,-0.0204,-0.0203,-0.0202,-0.0151,-0.015,-0.0149,-0.0161,0,0,-0.0146,-0.0145,0,0,0,0,0,0,0,0,-0.0309,-0.0303,-0.0215,-0.0214,-0.0213,-0.0212,-0.0244,-0.02,-0.0205,-0.021,-0.0203,-0.0202,-0.0166,-0.0164,-0.0169,-0.0159,-0.0157,-0.0145,-0.0145,-0.0144,-0.0144,0,0,0,0,0,0,0,-0.031,-0.0304,-0.0226,-0.0215,-0.0214,-0.0251,-0.0245,-0.0236,-0.0194,-0.0209,-0.0208,-0.0205,-0.0165,-0.017,-0.0167,-0.0156,-0.0145,-0.0144,-0.0144,-0.0143,-0.0168,-0.0169,0,0,0,0,0,0,-0.0301,-0.0305,-0.0226,-0.0226,-0.0257,-0.0249,-0.0243,-0.0215,-0.0195,-0.0191,-0.0206,-0.0204,-0.0173,-0.0169,-0.0165,-0.0195,-0.0144,-0.0143,-0.0142,-0.0166,-0.0168,-0.0169,0,0,0,0,0,0,-0.0303,-0.0293,-0.0226,-0.0266,-0.026,-0.0247,-0.0217,-0.0215,-0.0213,-0.0192,-0.0188,-0.0204,-0.0172,-0.0167,-0.0158,-0.0192,-0.0143,-0.0142,-0.0165,-0.0167,-0.0169,-0.0243,0,0,0,0,0,0,-0.0306,-0.0293,-0.0275,-0.0264,-0.0257,-0.0233,-0.0217,-0.0216,-0.0212,-0.021,-0.019,-0.0184,-0.0171,-0.016,-0.0157,-0.0189,-0.0141,-0.0163,-0.0166,-0.0168,-0.0239,-0.0247,-0.0254,0,0,0,0,0,-0.0309,-0.0283,-0.0273,-0.0264,-0.0229,-0.0234,-0.0234,-0.0225,-0.0213,-0.0219,-0.0204,-0.0185,-0.0174,-0.0159,-0.0155,-0.0189,-0.0162,-0.0165,-0.0168,-0.0235,-0.0245,-0.0254,0,0,0,0,0,0,-0.032,-0.0279,-0.0267,-0.0228,-0.0233,-0.023,-0.023,-0.0226,-0.022,-0.0212,-0.0192,-0.0187,-0.0198,-0.0179,-0.0164,-0.0204,-0.0169,-0.0171,-0.0222,-0.0231,-0.0239,-0.0273,-0.014,0,0,0,0,0,-0.0314,-0.028,-0.0266,-0.0238,-0.0238,-0.0236,-0.0237,-0.0232,-0.0225,-0.0221,-0.0211,-0.0203,-0.0211,-0.0206,-0.0205,-0.0217,-0.0231,-0.0239,-0.0247,-0.0254,-0.028,-0.0321,-0.0336,-0.0179,-0.0179,-0.0179,0,0,-0.0309,-0.0284,-0.0264,-0.024,-0.0239,-0.0253,-0.0234,-0.0234,-0.0255,-0.0216,-0.0235,-0.0227,-0.022,-0.0242,-0.0246,-0.0227,-0.0307,-0.0258,-0.0264,-0.0286,-0.0326,-0.0341,-0.0355,-0.0181,-0.0181,-0.0181,0,0,-0.0301,-0.0264,-0.0246,-0.0254,-0.0251,-0.0258,-0.0259,-0.026,-0.0269,-0.0283,-0.0273,-0.0295,-0.0279,-0.0308,-0.0314,-0.0365,-0.0348,-0.0347,-0.0414,-0.0454,-0.0467,-0.0479,-0.0524,-0.054,-0.035,-0.0351,-0.0351,0,-0.031,-0.0272,-0.0249,-0.0253,-0.0267,-0.0263,-0.028,-0.0297,-0.0299,-0.0323,-0.0294,-0.0337,-0.0328,-0.0392,-0.041,-0.0389,-0.0395,-0.0377,-0.0466,-0.0478,-0.0489,-0.0532,-0.0548,-0.0355,-0.0354,-0.0354,-0.0353,0,-0.0295,-0.0283,-0.028,-0.028,-0.0297,-0.0308,-0.0332,-0.0354,-0.036,-0.0384,-0.0437,-0.0441,-0.0473,-0.0474,-0.0454,-0.0536,-0.0509,-0.0471,-0.0444,-0.051,-0.055,-0.0566,-0.036,-0.0359,-0.0358,-0.0357,0,0,-0.0287,-0.0272,-0.0275,-0.0292,-0.0314,-0.0331,-0.0377,-0.0429,-0.047,-0.0492,-0.0555,-0.0595,-0.0604,-0.0614,-0.0604,-0.064,-0.0727,-0.0585,-0.0585,-0.0636,-0.0811,-0.0846,-0.0866,-0.0684,-0.0687,-0.069,-0.081,0,-0.0297,-0.0299,-0.0297,-0.034,-0.0356,-0.0385,-0.0436,-0.0486,-0.052,-0.0578,-0.0625,-0.0668,-0.0654,-0.0663,-0.0711,-0.0706,-0.0769,-0.0698,-0.0736,-0.0738,-0.0766,-0.0886,-0.0818,-0.0924,-0.0825,-0.0828,-0.083,0,-0.0296,-0.03,-0.0323,-0.0376,-0.0389,-0.0422,-0.0506,-0.0549,-0.0636,-0.0663,-0.0733,-0.0749,-0.0833,-0.0789,-0.0885,-0.0826,-0.0846,-0.0848,-0.0851,-0.0874,-0.0804,-0.0841,-0.0956,-0.0664,-0.0853,-0.0852,-0.085,0,-0.0304,-0.0333,-0.0349,-0.0366,-0.0419,-0.0453,-0.0495,-0.0576,-0.063,-0.0715,-0.0753,-0.0846,-0.0882,-0.0929,-0.0957,-0.091,-0.1045,-0.0978,-0.1051,-0.1052,-0.1004,-0.0997,-0.0852,-0.1082,-0.1081,-0.1081,-0.1081,0,-0.0319,-0.0343,-0.0353,-0.0367,-0.0423,-0.0462,-0.0538,-0.0588,-0.0673,-0.0751,-0.0797,-0.0871,-0.091,-0.0984,-0.1003,-0.1097,-0.1097,-0.1114,-0.1106,-0.1028,-0.1022,-0.0772,-0.0572,-0.1085,-0.1085,-0.1084,-0.1083,0,-0.0326,-0.0327,-0.0355,-0.0399,-0.0422,-0.0461,-0.0551,-0.0611,-0.0677,-0.0775,-0.0802,-0.0902,-0.1006,-0.1065,-0.1144,-0.1163,-0.1097,-0.1266,-0.1183,-0.1166,-0.0958,-0.0765,-0.0756,-0.0626,-0.1375,-0.1377,-0.1378,0,-0.033,-0.0333,-0.0365,-0.0385,-0.0404,-0.0466,-0.0521,-0.0606,-0.0673,-0.0804,-0.0859,-0.0977,-0.1092,-0.1244,-0.1295,-0.1389,-0.1162,-0.1358,-0.1284,-0.0984,-0.0762,-0.0702,-0.0585,-0.1243,-0.1243,-0.1243,-0.1244,0,-0.0337,-0.0332,-0.0344,-0.0376,-0.0422,-0.049,-0.057,-0.0628,-0.0739,-0.0825,-0.0963,-0.1058,-0.1221,-0.1312,-0.1421,-0.1438,-0.1101,-0.1371,-0.1068,-0.0682,-0.0598,-0.0454,-0.1113,-0.1246,-0.1246,-0.1246,-0.1246,-0.1245,-0.0334,-0.0335,-0.0334,-0.0375,-0.0423,-0.0503,-0.0564,-0.0668,-0.0782,-0.0934,-0.103,-0.1194,-0.1239,-0.1404,-0.1382,-0.1152,-0.115,-0.1014,-0.0822,-0.0807,-0.0627,-0.1319,-0.1432,-0.1433,-0.1433,-0.1434,-0.1434,0,-0.0328,-0.0322,-0.0345,-0.0388,-0.0437,-0.0472,-0.0592,-0.0666,-0.08,-0.0975,-0.1121,-0.1258,-0.12,-0.1133,-0.088,-0.0606,-0.0534,-0.0401,-0.0204,-0.0124,-0.0741,-0.0672,-0.0613,-0.0613,-0.0613,-0.0614,-0.0614,-0.0614,-0.0324,-0.0325,-0.0336,-0.0393,-0.0425,-0.051,-0.0577,-0.0689,-0.0826,-0.1039,-0.1193,-0.1341,-0.1063,-0.0372,0.0112,0.016,0.0493,0.0435,0.0601,0.0339,0.03,0.0263,0.0374,0.0651,0.0653,0.1154,0.1161,0.1166]}],[{"header":{"parameterUnit":"m.s-1","parameterCategory":2,"la1":30.2991,"la2":30.254,"lo1":-89.0895,"lo2":-89.0444,"dy":0.0017,"dx":0.0017,"nx":28,"ny":28,"refTime":"2025-08-03T03:00:00:Z","depth":"2","parameterNumber":2,"parameterNumberName":"U-component_of_CURRENTS"},"data":[0,0,0,0,0,0,0,0,0,0,0,0,0,0,0,0,0,0,0,0,0,0,0,0,0,0,0,0,0,0,0,0,0,0,0,0,0,0,0,0,0,0,0,0,0,0,0,0,0,0,0,0,0,0,0,0,0,0,-0.2616,-0.262,0,-0.2876,-0.2877,-0.2879,-0.2861,-0.2858,-0.2856,-0.2854,-0.2704,-0.2702,-0.27,0,0,0,0,0,0,0,0,0,0,0,0,0,-0.2227,-0.2232,-0.2616,-0.2621,-0.2626,-0.2876,-0.2877,-0.2879,-0.2861,-0.2858,-0.2856,-0.2853,-0.2704,-0.2702,-0.27,0,0,0,0,0,0,0,0,0,0,0,0,0,-0.2414,-0.2233,-0.2615,-0.266,-0.2668,-0.2875,-0.2877,-0.288,-0.2861,-0.2858,-0.2855,-0.2852,-0.2705,-0.2702,-0.2699,-0.2745,0,0,-0.269,-0.2689,0,0,0,0,0,0,0,0,-0.2403,-0.2426,-0.2649,-0.2658,-0.2668,-0.2849,-0.2687,-0.2821,-0.2862,-0.2768,-0.2854,-0.285,-0.2729,-0.2724,-0.2759,-0.2738,-0.2731,-0.269,-0.2688,-0.2687,-0.2686,0,0,0,0,0,0,0,-0.239,-0.2415,-0.27,-0.2655,-0.2667,-0.2712,-0.2731,-0.2713,-0.2741,-0.2776,-0.278,-0.284,-0.2728,-0.2762,-0.2754,-0.2729,-0.269,-0.2687,-0.2685,-0.2684,-0.2661,-0.2662,0,0,0,0,0,0,-0.2394,-0.2403,-0.2692,-0.2709,-0.2546,-0.2722,-0.2743,-0.2779,-0.2751,-0.2752,-0.2843,-0.2839,-0.2769,-0.2758,-0.2748,-0.2685,-0.2687,-0.2684,-0.2682,-0.266,-0.2661,-0.2662,0,0,0,0,0,0,-0.2384,-0.2416,-0.2682,-0.2578,-0.2617,-0.2733,-0.2773,-0.2786,-0.2819,-0.2809,-0.2797,-0.2863,-0.2766,-0.2753,-0.2726,-0.2682,-0.2682,-0.268,-0.2658,-0.266,-0.2662,-0.2631,0,0,0,0,0,0,-0.2371,-0.241,-0.2431,-0.2578,-0.2624,-0.2797,-0.2778,-0.2794,-0.287,-0.2866,-0.2823,-0.2807,-0.2762,-0.2731,-0.2723,-0.2678,-0.2677,-0.2657,-0.2659,-0.2661,-0.263,-0.2631,-0.2632,0,0,0,0,0,-0.2356,-0.2445,-0.2429,-0.2466,-0.2649,-0.2801,-0.2826,-0.2885,-0.2874,-0.2897,-0.2863,-0.2808,-0.2738,-0.2731,-0.272,-0.2673,-0.2656,-0.2658,-0.2661,-0.263,-0.2631,-0.2632,0,0,0,0,0,0,-0.2345,-0.2457,-0.2442,-0.2571,-0.2658,-0.2804,-0.2887,-0.2898,-0.2903,-0.289,-0.2832,-0.2815,-0.2767,-0.2755,-0.2748,-0.2682,-0.2685,-0.2686,-0.2665,-0.2666,-0.2666,-0.264,-0.2675,0,0,0,0,0,-0.2338,-0.2397,-0.2511,-0.2615,-0.2668,-0.276,-0.2831,-0.2859,-0.2906,-0.2908,-0.2869,-0.283,-0.2781,-0.2751,-0.272,-0.2698,-0.2657,-0.2665,-0.2666,-0.2666,-0.2644,-0.257,-0.256,-0.2671,-0.2671,-0.2671,0,0,-0.2366,-0.2447,-0.2478,-0.261,-0.2696,-0.2747,-0.2791,-0.2918,-0.2902,-0.2886,-0.2852,-0.2832,-0.2781,-0.2738,-0.2716,-0.2713,-0.262,-0.267,-0.2669,-0.2646,-0.2571,-0.256,-0.2549,-0.2673,-0.2673,-0.2672,0,0,-0.2462,-0.2523,-0.2577,-0.2633,-0.2759,-0.2797,-0.2823,-0.2929,-0.2916,-0.2905,-0.287,-0.2835,-0.2785,-0.2731,-0.2694,-0.2695,-0.2629,-0.2692,-0.2659,-0.2588,-0.2577,-0.2566,-0.251,-0.2494,-0.2688,-0.2688,-0.2688,0,-0.2465,-0.2545,-0.2628,-0.2687,-0.2721,-0.2801,-0.2827,-0.285,-0.2906,-0.2873,-0.2877,-0.2795,-0.2763,-0.2673,-0.2675,-0.2683,-0.2648,-0.2647,-0.2582,-0.2571,-0.256,-0.2506,-0.2489,-0.2687,-0.2687,-0.2687,-0.2687,0,-0.2566,-0.261,-0.2683,-0.271,-0.2755,-0.283,-0.2847,-0.2849,-0.2832,-0.2823,-0.2754,-0.2736,-0.2677,-0.2669,-0.2663,-0.2579,-0.258,-0.2589,-0.2564,-0.2546,-0.2492,-0.2474,-0.2685,-0.2686,-0.2686,-0.2686,0,0,-0.2527,-0.27,-0.2694,-0.2689,-0.2753,-0.2797,-0.277,-0.275,-0.2707,-0.2709,-0.2629,-0.2583,-0.2595,-0.256,-0.2559,-0.2508,-0.2419,-0.2523,-0.252,-0.2439,-0.2266,-0.2179,-0.2152,-0.2412,-0.2409,-0.2406,-0.226,0,-0.2528,-0.2641,-0.2691,-0.2697,-0.2729,-0.2737,-0.2696,-0.2674,-0.2646,-0.2594,-0.2558,-0.2504,-0.2545,-0.2523,-0.2478,-0.2439,-0.2371,-0.2458,-0.2319,-0.2315,-0.2215,-0.2127,-0.1984,-0.1833,-0.2243,-0.224,-0.2238,0,-0.2499,-0.2584,-0.2631,-0.2649,-0.2656,-0.2635,-0.2553,-0.2536,-0.2483,-0.2466,-0.2424,-0.2418,-0.2356,-0.2396,-0.2285,-0.2341,-0.2295,-0.2263,-0.2256,-0.2164,-0.2193,-0.1919,-0.1786,-0.2209,-0.2211,-0.2213,-0.2215,0,-0.237,-0.2474,-0.2505,-0.2518,-0.258,-0.2531,-0.2518,-0.2472,-0.2431,-0.2385,-0.2349,-0.2303,-0.2257,-0.2204,-0.2169,-0.2217,-0.2033,-0.2087,-0.1953,-0.1948,-0.1789,-0.1774,-0.1963,-0.1963,-0.1964,-0.1964,-0.1965,0,-0.2295,-0.2274,-0.2448,-0.2453,-0.2399,-0.2453,-0.2362,-0.2349,-0.232,-0.2259,-0.2281,-0.2209,-0.2204,-0.212,-0.2106,-0.1961,-0.1974,-0.1902,-0.1879,-0.178,-0.1767,-0.2075,-0.2089,-0.1959,-0.196,-0.1961,-0.1962,0,-0.2087,-0.2237,-0.2246,-0.2343,-0.2341,-0.2284,-0.2268,-0.2222,-0.2224,-0.2141,-0.2124,-0.2098,-0.1999,-0.1973,-0.187,-0.1844,-0.1744,-0.1686,-0.1579,-0.1545,-0.1729,-0.1745,-0.1514,-0.1509,-0.1505,-0.1501,-0.1498,0,-0.1982,-0.2,-0.2127,-0.2123,-0.2142,-0.2107,-0.2077,-0.2132,-0.2107,-0.2058,-0.2005,-0.1907,-0.1798,-0.1624,-0.1586,-0.149,-0.1577,-0.1278,-0.1332,-0.1669,-0.1671,-0.1694,-0.1715,-0.1124,-0.1118,-0.1113,-0.111,0,-0.1725,-0.1799,-0.1836,-0.1891,-0.1883,-0.1903,-0.1887,-0.1886,-0.1945,-0.1878,-0.1783,-0.1685,-0.1534,-0.1368,-0.1257,-0.1183,-0.1295,-0.1178,-0.1493,-0.1273,-0.1291,-0.1299,-0.1333,-0.1068,-0.1072,-0.1075,-0.1077,-0.1079,-0.1467,-0.1465,-0.1577,-0.1598,-0.1637,-0.1707,-0.1687,-0.171,-0.168,-0.1613,-0.1594,-0.1442,-0.1341,-0.1144,-0.0999,-0.0905,-0.102,-0.0944,-0.0962,-0.0984,-0.0977,-0.0989,-0.0708,-0.071,-0.0712,-0.0713,-0.0715,0,-0.1186,-0.1249,-0.1265,-0.1377,-0.1429,-0.1501,-0.1555,-0.1535,-0.1488,-0.1467,-0.1357,-0.1159,-0.0982,-0.0906,-0.0717,-0.0614,-0.064,-0.0529,-0.0591,-0.0629,-0.0663,-0.0647,-0.0286,-0.0285,-0.0285,-0.0284,0,0,-0.1032,-0.1037,-0.1134,-0.1182,-0.1244,-0.1261,-0.13,-0.125,-0.1249,-0.115,-0.1102,-0.1124,-0.1024,-0.0813,-0.0615,-0.0451,-0.0568,-0.039,-0.0727,-0.085,-0.0887,-0.0872,-0.0882,0,0,0,0,0]},{"header":{"parameterUnit":"m.s-1","parameterCategory":2,"la1":30.2991,"la2":30.254,"lo1":-89.0895,"lo2":-89.0444,"dy":0.0017,"dx":0.0017,"nx":28,"ny":28,"refTime":"2025-08-03T03:00:00:Z","depth":"2","parameterNumber":3,"parameterNumberName":"V-component_of_CURRENTS"},"data":[0,0,0,0,0,0,0,0,0,0,0,0,0,0,0,0,0,0,0,0,0,0,0,0,0,0,0,0,0,0,0,0,0,0,0,0,0,0,0,0,0,0,0,0,0,0,0,0,0,0,0,0,0,0,0,0,0,0,0.0128,0.0131,0,0.0347,0.0349,0.0351,0.0377,0.0376,0.0374,0.0372,0.0447,0.0451,0.0454,0,0,0,0,0,0,0,0,0,0,0,0,0,-0.0026,-0.0025,0.0128,0.0131,0.0134,0.0347,0.0349,0.0352,0.0378,0.0376,0.0374,0.0372,0.0446,0.045,0.0455,0,0,0,0,0,0,0,0,0,0,0,0,0,0.0096,-0.0025,0.0127,0.0177,0.0184,0.0346,0.0349,0.0352,0.0378,0.0376,0.0373,0.0371,0.0445,0.045,0.0455,0.0537,0,0,0.0471,0.0474,0,0,0,0,0,0,0,0,0.0089,0.01,0.0166,0.0174,0.0182,0.0337,0.0323,0.0409,0.0379,0.0298,0.0372,0.037,0.0403,0.0411,0.0452,0.0541,0.0544,0.0472,0.0475,0.0477,0.0479,0,0,0,0,0,0,0,0.008,0.0093,0.0209,0.017,0.018,0.0272,0.0284,0.0341,0.0355,0.0305,0.0309,0.0343,0.0405,0.0447,0.0454,0.0545,0.0472,0.0476,0.048,0.0482,0.0707,0.0709,0,0,0,0,0,0,0.0054,0.0084,0.0202,0.0216,0.0135,0.0276,0.0289,0.0285,0.0357,0.0369,0.0345,0.0344,0.0439,0.0448,0.0456,0.0496,0.0477,0.0482,0.0485,0.0704,0.0707,0.071,0,0,0,0,0,0,0.0049,0.0061,0.0193,0.0162,0.0186,0.028,0.0277,0.0291,0.0326,0.039,0.0397,0.0365,0.0438,0.0449,0.0519,0.05,0.0485,0.0489,0.0701,0.0705,0.0709,0.0613,0,0,0,0,0,0,0.0043,0.0057,0.0053,0.0158,0.0186,0.028,0.028,0.0297,0.0354,0.0354,0.041,0.0415,0.0437,0.0512,0.0525,0.0507,0.0493,0.0697,0.0703,0.0708,0.0613,0.0614,0.0615,0,0,0,0,0,0.0036,0.0042,0.005,0.0066,0.0173,0.0282,0.0305,0.0362,0.0357,0.0381,0.0428,0.0413,0.0553,0.0519,0.0533,0.0516,0.0695,0.0701,0.0707,0.0613,0.0614,0.0615,0,0,0,0,0,0,0.0005,0.005,0.0059,0.0085,0.0171,0.0288,0.0331,0.0365,0.0427,0.0422,0.0457,0.0468,0.0514,0.0561,0.0522,0.0608,0.0619,0.0629,0.0543,0.0544,0.0545,0.0512,0.0498,0,0,0,0,0,-0.0011,-0.0013,0.0071,0.0104,0.0135,0.023,0.0283,0.0325,0.0399,0.0423,0.0466,0.0519,0.0561,0.0585,0.0639,0.0699,0.0733,0.0704,0.0704,0.0704,0.0695,0.0802,0.0809,0.0731,0.0731,0.0731,0,0,-0.0006,0.0022,0.0025,0.0096,0.0163,0.0224,0.0254,0.0337,0.0381,0.0423,0.0487,0.0521,0.0582,0.0632,0.0657,0.0661,0.0735,0.0712,0.071,0.0701,0.0809,0.0816,0.0822,0.0735,0.0735,0.0734,0,0,0.0012,0.002,0.0021,0.0082,0.0175,0.0236,0.0252,0.0359,0.0387,0.0468,0.0493,0.0542,0.0619,0.0659,0.0685,0.0743,0.0733,0.074,0.0709,0.0812,0.0818,0.0823,0.0811,0.0816,0.0741,0.074,0.074,0,0.0013,0.0022,0.0055,0.0091,0.0144,0.0229,0.0273,0.0335,0.0452,0.047,0.0474,0.0595,0.0636,0.0692,0.0687,0.0736,0.0749,0.068,0.0806,0.0813,0.0821,0.0807,0.0814,0.0737,0.0737,0.0738,0.0738,0,0.0033,0.0052,0.0076,0.0118,0.0181,0.0245,0.0325,0.0373,0.0409,0.0461,0.0522,0.0602,0.0657,0.0678,0.0681,0.0743,0.0714,0.0784,0.0781,0.0821,0.0806,0.0814,0.0731,0.0733,0.0734,0.0735,0,0,-0.0015,0.0061,0.0067,0.009,0.0192,0.0248,0.0308,0.0379,0.0399,0.049,0.0522,0.0593,0.0606,0.0641,0.0672,0.075,0.0778,0.0756,0.0763,0.07,0.0904,0.0874,0.0881,0.0855,0.0858,0.086,0.0845,0,-0.0014,0.0033,0.0076,0.0143,0.0175,0.0253,0.03,0.0372,0.0422,0.0477,0.0549,0.0592,0.0603,0.0604,0.0683,0.0763,0.0808,0.0769,0.0914,0.0916,0.0853,0.0896,0.0937,0.0929,0.0854,0.0855,0.0857,0,-0.0029,0.0003,0.0047,0.0124,0.0143,0.0187,0.0251,0.0308,0.039,0.0415,0.0469,0.0525,0.0598,0.0636,0.0774,0.0734,0.079,0.0865,0.0869,0.0885,0.0907,0.0899,0.0949,0.0872,0.0871,0.087,0.0869,0,-0.01,-0.002,0.0004,0.0037,0.0136,0.0147,0.0192,0.0268,0.0304,0.0362,0.0387,0.049,0.0531,0.0661,0.0744,0.0762,0.09,0.0974,0.0998,0.0992,0.1082,0.108,0.1095,0.1095,0.1095,0.1095,0.1095,0,-0.0128,-0.0107,-0.0038,-0.0022,-0.0004,0.0077,0.01,0.0142,0.0216,0.0253,0.033,0.0372,0.0545,0.0634,0.0732,0.0849,0.089,0.0981,0.1013,0.1043,0.1039,0.1056,0.1052,0.1094,0.1095,0.1095,0.1095,0,-0.0197,-0.0149,-0.012,-0.0051,-0.0037,-0.0033,0.004,0.0066,0.0115,0.0169,0.018,0.0285,0.0361,0.0504,0.069,0.0817,0.0955,0.0983,0.0931,0.0959,0.0969,0.0961,0.1042,0.1041,0.1041,0.104,0.104,0,-0.0226,-0.0222,-0.0166,-0.016,-0.0135,-0.0113,-0.0088,-0.0012,0.0029,0.0112,0.0142,0.0204,0.025,0.0459,0.0683,0.0846,0.0855,0.0996,0.1092,0.0954,0.0977,0.0969,0.0962,0.1139,0.114,0.114,0.114,0,-0.0278,-0.0265,-0.0239,-0.0235,-0.022,-0.0184,-0.0143,-0.012,-0.0027,0.0002,0.0043,0.0078,0.0263,0.0487,0.0695,0.0805,0.0984,0.101,0.0942,0.114,0.1046,0.1067,0.1058,0.1144,0.1144,0.1144,0.1143,0.1143,-0.0324,-0.0327,-0.0302,-0.0299,-0.0281,-0.0256,-0.0239,-0.0186,-0.0152,-0.0066,-0.0012,0.0145,0.0382,0.0739,0.0785,0.0896,0.0974,0.1102,0.1102,0.1102,0.1111,0.1022,0.1108,0.1108,0.1107,0.1107,0.1107,0,-0.0377,-0.0361,-0.0362,-0.0345,-0.0348,-0.0315,-0.0263,-0.0242,-0.0227,-0.0073,-0.0016,0.0309,0.0575,0.0742,0.0973,0.1079,0.1057,0.1031,0.1056,0.1058,0.1058,0.1063,0.1049,0.1047,0.1045,0.1044,0,0,-0.04,-0.041,-0.0407,-0.0415,-0.0405,-0.0405,-0.0385,-0.0355,-0.0234,-0.0119,0.0122,0.0449,0.0746,0.09,0.0968,0.1011,0.0958,0.0957,0.1028,0.1051,0.1045,0.1162,0.118,0,0,0,0,0]}],[{"header":{"parameterUnit":"m.s-1","parameterCategory":2,"la1":30.2991,"la2":30.254,"lo1":-89.0895,"lo2":-89.0444,"dy":0.0017,"dx":0.0017,"nx":28,"ny":28,"refTime":"2025-08-03T03:00:00:Z","depth":"4","parameterNumber":2,"parameterNumberName":"U-component_of_CURRENTS"},"data":[0,0,0,0,0,0,0,0,0,0,0,0,0,0,0,0,0,0,0,0,0,0,0,0,0,0,0,0,0,0,0,0,0,0,0,0,0,0,0,0,0,0,0,0,0,0,0,0,0,0,0,0,0,0,0,0,0,0,-0.1178,-0.1178,0,-0.1189,-0.1189,-0.1189,-0.1185,-0.1185,-0.1185,-0.1184,-0.1211,-0.1212,-0.1213,0,0,0,0,0,0,0,0,0,0,0,0,0,-0.1099,-0.1101,-0.1178,-0.1179,-0.1179,-0.1189,-0.1189,-0.1189,-0.1185,-0.1185,-0.1185,-0.1184,-0.1211,-0.1212,-0.1213,0,0,0,0,0,0,0,0,0,0,0,0,0,-0.1125,-0.1102,-0.1178,-0.1177,-0.1177,-0.1189,-0.1189,-0.119,-0.1186,-0.1185,-0.1185,-0.1184,-0.121,-0.1212,-0.1213,-0.1232,0,0,-0.1218,-0.1218,0,0,0,0,0,0,0,0,-0.1124,-0.1128,-0.1177,-0.1177,-0.1177,-0.1185,-0.1171,-0.1204,-0.1186,-0.1183,-0.1184,-0.1184,-0.1203,-0.1205,-0.1209,-0.1233,-0.1234,-0.1218,-0.1219,-0.1219,-0.122,0,0,0,0,0,0,0,-0.1122,-0.1127,-0.1183,-0.1177,-0.1177,-0.1157,-0.1161,-0.1177,-0.1197,-0.1183,-0.1183,-0.1183,-0.1204,-0.1208,-0.121,-0.1235,-0.1218,-0.1219,-0.122,-0.1221,-0.1379,-0.1382,0,0,0,0,0,0,-0.1123,-0.1126,-0.1183,-0.1184,-0.1148,-0.1159,-0.1163,-0.1183,-0.1196,-0.1197,-0.1183,-0.1183,-0.1206,-0.1208,-0.1211,-0.1299,-0.1219,-0.1221,-0.1222,-0.1376,-0.138,-0.1383,0,0,0,0,0,0,-0.1121,-0.1129,-0.1183,-0.1153,-0.1158,-0.1161,-0.1184,-0.1184,-0.1198,-0.1196,-0.1197,-0.1198,-0.1205,-0.1209,-0.1253,-0.1297,-0.1222,-0.1223,-0.1372,-0.1377,-0.1381,-0.1433,0,0,0,0,0,0,-0.1119,-0.1129,-0.1151,-0.1154,-0.116,-0.1192,-0.1184,-0.1184,-0.1197,-0.1197,-0.1209,-0.121,-0.1205,-0.1251,-0.1255,-0.1298,-0.1224,-0.1368,-0.1374,-0.138,-0.1427,-0.1439,-0.145,0,0,0,0,0,-0.1117,-0.1142,-0.1152,-0.1159,-0.1189,-0.1192,-0.1193,-0.1193,-0.1199,-0.1205,-0.1232,-0.121,-0.1294,-0.1254,-0.1258,-0.1303,-0.1365,-0.1372,-0.1379,-0.1422,-0.1437,-0.1449,0,0,0,0,0,0,-0.1107,-0.1144,-0.1155,-0.1188,-0.1192,-0.1191,-0.1198,-0.1204,-0.1229,-0.1237,-0.124,-0.1244,-0.1292,-0.1304,-0.1261,-0.1374,-0.1331,-0.1339,-0.1363,-0.1377,-0.1387,-0.134,-0.1225,0,0,0,0,0,-0.112,-0.1157,-0.117,-0.1195,-0.12,-0.1206,-0.1211,-0.1213,-0.123,-0.124,-0.1258,-0.1293,-0.1326,-0.1355,-0.1371,-0.1435,-0.1393,-0.1475,-0.1486,-0.1495,-0.1464,-0.1457,-0.1462,-0.1408,-0.1408,-0.1407,0,0,-0.1114,-0.1147,-0.1161,-0.1197,-0.1202,-0.1205,-0.1208,-0.1218,-0.1229,-0.1241,-0.1279,-0.1314,-0.1347,-0.1409,-0.1437,-0.1428,-0.1494,-0.1505,-0.1512,-0.1475,-0.1465,-0.1469,-0.1473,-0.1413,-0.1412,-0.1411,0,0,-0.1114,-0.1158,-0.1181,-0.1192,-0.1212,-0.1215,-0.1222,-0.1239,-0.1257,-0.13,-0.132,-0.138,-0.1435,-0.1471,-0.1496,-0.1583,-0.1535,-0.162,-0.1653,-0.1648,-0.1651,-0.1652,-0.1607,-0.1604,-0.1647,-0.1647,-0.1647,0,-0.1105,-0.1145,-0.118,-0.1198,-0.1206,-0.1221,-0.1224,-0.1243,-0.1277,-0.1304,-0.1316,-0.1413,-0.1453,-0.1521,-0.1576,-0.16,-0.158,-0.1593,-0.1656,-0.1657,-0.1657,-0.1611,-0.1607,-0.165,-0.165,-0.1649,-0.1649,0,-0.1109,-0.1144,-0.1154,-0.119,-0.1202,-0.1209,-0.1232,-0.1258,-0.1292,-0.1321,-0.1392,-0.1451,-0.1513,-0.1563,-0.1602,-0.1661,-0.1637,-0.1648,-0.1604,-0.1665,-0.1614,-0.1608,-0.1655,-0.1654,-0.1653,-0.1652,0,0,-0.1074,-0.1144,-0.1149,-0.1169,-0.1201,-0.121,-0.1234,-0.1266,-0.1288,-0.1349,-0.139,-0.1494,-0.1541,-0.1573,-0.1639,-0.1665,-0.1683,-0.1683,-0.1681,-0.1605,-0.1646,-0.1523,-0.1505,-0.1712,-0.1712,-0.1711,-0.1607,0,-0.1061,-0.1105,-0.1141,-0.1161,-0.1174,-0.1203,-0.1226,-0.1265,-0.1303,-0.1352,-0.1427,-0.1496,-0.1542,-0.1606,-0.1634,-0.1678,-0.1672,-0.1707,-0.1626,-0.1622,-0.1479,-0.1496,-0.171,-0.1603,-0.1601,-0.16,-0.16,0,-0.1045,-0.1083,-0.1112,-0.1166,-0.1174,-0.1189,-0.1227,-0.1252,-0.1316,-0.1353,-0.1417,-0.1483,-0.1569,-0.159,-0.1618,-0.1646,-0.1641,-0.1646,-0.1642,-0.1493,-0.1488,-0.1534,-0.1589,-0.159,-0.1591,-0.1591,-0.1592,0,-0.1007,-0.1061,-0.1094,-0.1108,-0.1163,-0.1185,-0.1213,-0.1262,-0.1285,-0.1366,-0.1393,-0.1476,-0.1526,-0.1542,-0.1583,-0.1617,-0.1561,-0.1604,-0.1455,-0.1445,-0.156,-0.1559,-0.1562,-0.1562,-0.1562,-0.1562,-0.1563,0,-0.0977,-0.1,-0.1085,-0.1099,-0.1125,-0.1178,-0.1203,-0.1233,-0.1283,-0.1301,-0.1407,-0.1412,-0.152,-0.1524,-0.1548,-0.1465,-0.1524,-0.1424,-0.1406,-0.159,-0.1594,-0.1555,-0.1556,-0.1558,-0.1559,-0.156,-0.1561,0,-0.0915,-0.0979,-0.1015,-0.1089,-0.1108,-0.113,-0.118,-0.1192,-0.1249,-0.1266,-0.1305,-0.1371,-0.1354,-0.1397,-0.1405,-0.1391,-0.1352,-0.1296,-0.1446,-0.1444,-0.1246,-0.1251,-0.1123,-0.1118,-0.1114,-0.111,-0.1107,0,-0.0887,-0.0906,-0.0989,-0.101,-0.1043,-0.1083,-0.1097,-0.116,-0.1167,-0.1212,-0.121,-0.1223,-0.1251,-0.1132,-0.1197,-0.1162,-0.116,-0.1146,-0.1232,-0.1202,-0.1199,-0.1212,-0.1223,-0.11,-0.1098,-0.1097,-0.1096,0,-0.0823,-0.0867,-0.0901,-0.0935,-0.0966,-0.0987,-0.1021,-0.1018,-0.1078,-0.1134,-0.1084,-0.1083,-0.1021,-0.1025,-0.0985,-0.0981,-0.1182,-0.11,-0.1111,-0.1191,-0.1172,-0.1176,-0.1192,-0.1081,-0.1083,-0.1084,-0.1085,0,-0.0771,-0.0781,-0.0833,-0.085,-0.0884,-0.0887,-0.0919,-0.0919,-0.0932,-0.0993,-0.0954,-0.0952,-0.0979,-0.0921,-0.0896,-0.0868,-0.0878,-0.0914,-0.0935,-0.0953,-0.0952,-0.0907,-0.0687,0,0,0,0,0,-0.071,-0.0717,-0.0738,-0.0764,-0.079,-0.0807,-0.0859,-0.0898,-0.0954,-0.0883,-0.0919,-0.0856,-0.0804,-0.0807,-0.074,-0.0828,-0.0893,-0.0754,-0.0949,-0.0994,-0.1012,-0.1031,0,0,0,0,0,0,-0.0668,-0.0696,-0.0711,-0.0681,-0.0676,-0.0695,-0.0731,-0.0778,-0.0751,-0.0805,-0.0763,-0.081,-0.0753,-0.0797,-0.0714,-0.0717,-0.083,-0.0756,-0.0754,-0.0984,-0.1,-0.1015,-0.1041,0,0,0,0,0]},{"header":{"parameterUnit":"m.s-1","parameterCategory":2,"la1":30.2991,"la2":30.254,"lo1":-89.0895,"lo2":-89.0444,"dy":0.0017,"dx":0.0017,"nx":28,"ny":28,"refTime":"2025-08-03T03:00:00:Z","depth":"4","parameterNumber":3,"parameterNumberName":"V-component_of_CURRENTS"},"data":[0,0,0,0,0,0,0,0,0,0,0,0,0,0,0,0,0,0,0,0,0,0,0,0,0,0,0,0,0,0,0,0,0,0,0,0,0,0,0,0,0,0,0,0,0,0,0,0,0,0,0,0,0,0,0,0,0,0,-0.0199,-0.0199,0,-0.0209,-0.0209,-0.0209,-0.0175,-0.0174,-0.0173,-0.0172,-0.0176,-0.0177,-0.0178,0,0,0,0,0,0,0,0,0,0,0,0,0,-0.0171,-0.0172,-0.0199,-0.0199,-0.0199,-0.0209,-0.0209,-0.0209,-0.0175,-0.0174,-0.0173,-0.0172,-0.0175,-0.0177,-0.0178,0,0,0,0,0,0,0,0,0,0,0,0,0,-0.0182,-0.0172,-0.0199,-0.0183,-0.0182,-0.0209,-0.0209,-0.0209,-0.0176,-0.0174,-0.0172,-0.0171,-0.0175,-0.0176,-0.0178,-0.0219,0,0,-0.0183,-0.0184,0,0,0,0,0,0,0,0,-0.0182,-0.0183,-0.0185,-0.0184,-0.0183,-0.0189,-0.02,-0.0212,-0.0176,-0.0178,-0.0172,-0.017,-0.0181,-0.0182,-0.0187,-0.0219,-0.0219,-0.0183,-0.0184,-0.0185,-0.0185,0,0,0,0,0,0,0,-0.0181,-0.0183,-0.0203,-0.0186,-0.0184,-0.0182,-0.0182,-0.0202,-0.0188,-0.0178,-0.0175,-0.0177,-0.018,-0.0186,-0.0187,-0.0219,-0.0183,-0.0184,-0.0185,-0.0186,-0.0248,-0.0249,0,0,0,0,0,0,-0.018,-0.0182,-0.0203,-0.0203,-0.0178,-0.0184,-0.0184,-0.0189,-0.0188,-0.0186,-0.0178,-0.0175,-0.0184,-0.0185,-0.0187,-0.0214,-0.0185,-0.0186,-0.0187,-0.0248,-0.0248,-0.0249,0,0,0,0,0,0,-0.018,-0.0182,-0.0202,-0.0192,-0.0195,-0.0186,-0.0192,-0.019,-0.0193,-0.0188,-0.0186,-0.0183,-0.0183,-0.0185,-0.0206,-0.0215,-0.0187,-0.0188,-0.0247,-0.0248,-0.0249,-0.0282,0,0,0,0,0,0,-0.0179,-0.0182,-0.019,-0.0193,-0.0195,-0.0228,-0.0193,-0.0191,-0.0196,-0.0193,-0.0192,-0.0191,-0.0182,-0.0204,-0.0208,-0.0216,-0.019,-0.0246,-0.0247,-0.0248,-0.028,-0.0284,-0.0288,0,0,0,0,0,-0.0178,-0.0199,-0.0191,-0.0193,-0.0205,-0.0229,-0.0232,-0.022,-0.0198,-0.0214,-0.0206,-0.0191,-0.0214,-0.0207,-0.0211,-0.022,-0.0245,-0.0247,-0.0248,-0.0278,-0.0283,-0.0288,0,0,0,0,0,0,-0.0199,-0.0197,-0.0188,-0.0209,-0.0221,-0.0224,-0.0237,-0.0227,-0.0234,-0.0228,-0.0212,-0.0212,-0.0233,-0.0227,-0.0218,-0.024,-0.0223,-0.0226,-0.0245,-0.0249,-0.0253,-0.0241,-0.0191,0,0,0,0,0,-0.0206,-0.0214,-0.022,-0.0238,-0.0244,-0.0241,-0.0249,-0.0245,-0.0249,-0.0249,-0.0246,-0.0242,-0.0245,-0.0247,-0.0257,-0.0278,-0.0223,-0.0282,-0.0286,-0.0289,-0.0282,-0.0207,-0.0202,-0.0254,-0.0254,-0.0254,0,0,-0.022,-0.0219,-0.0225,-0.0242,-0.0247,-0.0271,-0.0242,-0.0264,-0.0276,-0.0252,-0.027,-0.0265,-0.0257,-0.0274,-0.0282,-0.0268,-0.0244,-0.0291,-0.0294,-0.0285,-0.0207,-0.0202,-0.0197,-0.0255,-0.0255,-0.0255,0,0,-0.0254,-0.0252,-0.0271,-0.0284,-0.0297,-0.0301,-0.0308,-0.0318,-0.0311,-0.0336,-0.0311,-0.031,-0.0327,-0.0312,-0.0307,-0.0341,-0.0272,-0.0342,-0.0346,-0.0273,-0.0267,-0.0261,-0.0172,-0.0158,-0.0336,-0.0336,-0.0336,0,-0.0268,-0.0289,-0.0284,-0.0309,-0.0322,-0.0315,-0.0346,-0.0349,-0.0362,-0.0357,-0.0348,-0.0346,-0.0342,-0.0338,-0.034,-0.0348,-0.0282,-0.0329,-0.0275,-0.0268,-0.0261,-0.0171,-0.0156,-0.0338,-0.0337,-0.0337,-0.0337,0,-0.0315,-0.0334,-0.035,-0.0371,-0.0391,-0.0419,-0.0422,-0.0435,-0.0426,-0.0416,-0.0416,-0.0404,-0.0392,-0.0391,-0.0374,-0.0334,-0.0293,-0.0292,-0.0258,-0.0258,-0.0163,-0.0146,-0.034,-0.034,-0.0339,-0.0339,0,0,-0.0336,-0.0373,-0.0377,-0.0394,-0.0424,-0.0445,-0.047,-0.0482,-0.0485,-0.048,-0.047,-0.0463,-0.0434,-0.0425,-0.04,-0.0335,-0.0231,-0.0287,-0.0282,-0.0189,-0.0038,-0.0032,-0.0012,-0.0207,-0.0205,-0.0203,0.0015,0,-0.037,-0.0417,-0.0431,-0.0483,-0.0509,-0.0515,-0.0537,-0.0545,-0.0539,-0.0531,-0.0489,-0.0483,-0.0452,-0.0443,-0.0371,-0.0274,-0.0189,-0.0289,-0.0061,-0.0054,-0.004,0.0006,-0.0195,0.0028,0.0032,0.0035,0.0037,0,-0.0407,-0.0431,-0.0484,-0.0524,-0.0537,-0.0569,-0.0594,-0.0615,-0.0597,-0.0585,-0.0555,-0.0523,-0.0443,-0.0419,-0.022,-0.0276,-0.0153,-0.0069,-0.0058,-0.0028,-0.0016,0.0024,0.0069,0.0066,0.0064,0.0062,0.006,0,-0.0413,-0.0466,-0.0504,-0.0522,-0.0571,-0.0593,-0.0618,-0.0627,-0.0632,-0.0615,-0.0605,-0.0518,-0.0463,-0.0311,-0.014,-0.0163,0.01,0.0085,0.0211,0.0214,0.0158,0.015,0.0245,0.0245,0.0244,0.0244,0.0243,0,-0.0436,-0.0469,-0.0509,-0.0534,-0.0581,-0.0608,-0.0647,-0.0663,-0.066,-0.0649,-0.0625,-0.0578,-0.0427,-0.0275,-0.0119,0.0112,0.0127,0.0234,0.0274,0.0139,0.0126,0.0172,0.0161,0.0252,0.025,0.0249,0.0247,0,-0.0443,-0.0469,-0.052,-0.057,-0.0589,-0.0623,-0.067,-0.0687,-0.069,-0.0672,-0.0664,-0.0579,-0.038,-0.0217,0.0044,0.0141,0.0345,0.0423,0.0292,0.0317,0.0411,0.0395,0.0591,0.0593,0.0595,0.0597,0.0598,0,-0.0451,-0.0476,-0.0541,-0.0573,-0.0602,-0.0648,-0.0678,-0.0699,-0.0702,-0.0654,-0.0627,-0.0475,-0.0388,-0.0,0.0148,0.044,0.0463,0.0555,0.046,0.0429,0.0449,0.043,0.0412,0.0601,0.0601,0.0602,0.0602,0,-0.0466,-0.049,-0.0529,-0.0588,-0.0632,-0.0677,-0.0707,-0.07,-0.0696,-0.0693,-0.0544,-0.0394,-0.0173,0.0052,0.0268,0.0467,0.0477,0.0574,0.057,0.0482,0.0443,0.0456,0.0437,0.0608,0.0607,0.0607,0.0607,0,-0.0472,-0.0503,-0.055,-0.06,-0.0657,-0.0687,-0.0703,-0.0661,-0.0649,-0.0575,-0.0503,-0.0308,-0.019,0.0072,0.028,0.046,0.0487,0.051,0.051,0.0505,0.0382,0.0314,0.0499,0,0,0,0,0,-0.0471,-0.0506,-0.0557,-0.0619,-0.0672,-0.0701,-0.0716,-0.0716,-0.0684,-0.056,-0.0526,-0.0311,-0.0022,0.0089,0.0283,0.0276,0.0482,0.0499,0.05,0.0643,0.0636,0.0503,0,0,0,0,0,0,-0.0478,-0.0524,-0.0552,-0.0616,-0.0658,-0.0713,-0.0718,-0.0699,-0.0612,-0.055,-0.0376,-0.0293,0.0,-0.0116,0.028,0.0327,0.0345,0.0635,0.0638,0.0647,0.064,0.0635,0.0495,0,0,0,0,0]}]]